317P/WISE (2010)

Japanese version
Home page
Updated on March 22, 2015

---------------------------------------------------------------------

* Profile

Designation 317P/2010 K2
Discovery Date May 27, 2010
Magnitude
Discoverer Wide Field Infrared Survey Explorer (NASA)

* Orbital Elements

Epoch 2010 July 23.0 TT = JDT 2455400.5
T 2010 July 7.54838 TT                                  MPCW
q   1.1983384            (2000.0)            P               Q
n   0.19727461     Peri.  328.52572     -0.33881606     +0.92322882
a   2.9225050      Node   281.13169     -0.82030255     -0.38421623
e   0.5899619      Incl.   10.64523     -0.46076827     +0.00514098
P   5.00
From 62 observations 2010 May 27-2015 Mar. 18, mean residual 0".4.

* Magnitudes Graph

        m1 = 19.0 + 5 log d + 10.0 log r

---------------------------------------------------------------------

The orbital elements are published on M.P.E.C. 2015-F33.
The magnitudes graphs are made with Comet for Windows.

---------------------------------------------------------------------

Copyright(C) Seiichi Yoshida (comet@aerith.net). All rights reserved.